TimeCST,TemperatureF,Dew PointF,Humidity,Sea Level PressureIn,VisibilityMPH,Wind Direction,Wind SpeedMPH,Gust SpeedMPH,PrecipitationIn,Events,Conditions,WindDirDegrees,DateUTC
12:53 AM,36.0,30.0,79,29.86,7.0,SSE,16.1,-,N/A,,Clear,160,2012-12-01 06:53:00
1:53 AM,36.0,28.9,76,29.82,7.0,North,-9999.0,-,0.00,,Clear,0,2012-12-01 07:53:00
2:53 AM,36.0,30.0,79,29.79,7.0,South,18.4,-,N/A,,Clear,170,2012-12-01 08:53:00
4:53 AM,35.1,30.0,82,29.74,7.0,SSE,12.7,-,N/A,,Clear,160,2012-12-01 10:53:00
5:53 AM,35.1,30.0,82,29.74,7.0,SSE,5.8,16.1,N/A,,Clear,150,2012-12-01 11:53:00
6:53 AM,35.1,30.0,82,29.75,7.0,SSE,4.6,-,N/A,,Clear,160,2012-12-01 12:53:00
7:53 AM,37.0,30.9,79,29.75,8.0,SSE,4.6,-,N/A,,Mostly Cloudy,150,2012-12-01 13:53:00
8:53 AM,37.9,33.1,83,29.78,8.0,SSE,3.5,-,N/A,,Scattered Clouds,160,2012-12-01 14:53:00
9:53 AM,42.1,33.1,70,29.78,10.0,Calm,Calm,-,N/A,,Partly Cloudy,0,2012-12-01 15:53:00
10:53 AM,48.9,33.1,54,29.77,10.0,West,3.5,-,N/A,,Clear,270,2012-12-01 16:53:00
11:53 AM,53.1,30.9,43,29.77,10.0,NW,4.6,-,N/A,,Clear,320,2012-12-01 17:53:00
12:53 PM,55.9,32.0,40,29.76,10.0,Variable,3.5,-,N/A,,Clear,0,2012-12-01 18:53:00
1:53 PM,57.0,30.9,37,29.76,10.0,NNW,5.8,-,N/A,,Clear,330,2012-12-01 19:53:00
2:53 PM,57.0,32.0,39,29.76,10.0,North,9.2,-,N/A,,Clear,350,2012-12-01 20:53:00
3:53 PM,54.0,32.0,43,29.78,10.0,North,8.1,-,N/A,,Clear,350,2012-12-01 21:53:00
4:53 PM,46.9,30.0,52,29.82,10.0,North,8.1,-,N/A,,Unknown,350,2012-12-01 22:53:00
5:53 PM,46.0,30.0,54,29.84,10.0,Calm,Calm,-,N/A,,Clear,0,2012-12-01 23:53:00
6:53 PM,46.0,30.0,54,29.84,10.0,Calm,Calm,-,N/A,,Mostly Cloudy,0,2012-12-02 00:53:00
7:53 PM,39.9,30.0,68,29.88,10.0,NNW,3.5,-,N/A,,Clear,340,2012-12-02 01:53:00
8:53 PM,34.0,27.0,75,29.89,10.0,Calm,Calm,-,N/A,,Clear,0,2012-12-02 02:53:00
9:53 PM,33.1,27.0,78,29.89,10.0,SW,3.5,-,N/A,,Clear,230,2012-12-02 03:53:00
10:53 PM,30.9,25.0,79,29.91,10.0,NW,6.9,-,N/A,,Clear,320,2012-12-02 04:53:00
11:53 PM,-9999,-9999,N/A,29.89,-9999.0,North,-9999.0,-,N/A,,Unknown,0,2012-12-02 05:53:00